Regional Weather Roundup
Issued by NWS Albany, NY

Home | Current Version | Previous Version | Text Only | Print | Product List | Glossary On
Versions: 1 2 3 4 5 6 7 8 9 10 11 12 13 14 15 16 17 18 19 20 21 22 23 24 25 26 27 28 29 30 31 32 33 34 35 36 37 38 39 40 41 42 43 44 45 46 47 48 49 50
535
ASUS41 KALY 232110
RWRALY

NEW YORK STATE HOURLY WEATHER ROUNDUP
NATIONAL WEATHER SERVICE ALBANY NY
500 PM EDT THU MAR 23 2017

NOTE: "FAIR" INDICATES FEW OR NO CLOUDS BELOW 12,000 FEET WITH NO
SIGNIFICANT WEATHER AND/OR NO OBSTRUCTIONS TO VISIBILITY.

NYZ032-033-038>043-046>054-057>066-NYZ062>081-082-084-232200-
EAST


CITY           SKY/WX    TMP DP  RH WIND       PRES   REMARKS
ALBANY         MOSUNNY   36   7  29 NW18      30.49F WCI  26
GLENS FALLS    SUNNY     39   1  20 NW12      30.44F WCI  32
POUGHKEEPSIE   SUNNY     39  -1  18 VRB3      30.48F
NEWBURGH       SUNNY     39   3  22 W12       30.48F WCI  32
MONTGOMERY     SUNNY     40   0  18 NW9       30.47F WCI  34
WHITE PLAINS   SUNNY     40   0  18 NW10      30.48F WCI  33
ISLIP          MOSUNNY   40   0  18 NW15      30.49F WCI  32
NEW YORK CITY  MOSUNNY   44  -1  15 NW10      30.50F
CENTRAL PARK   SUNNY     42  -2  15 VRB6      30.53F
$$

NYZ005>009-017-018-044>046-055-056-232200-
CENTRAL


CITY           SKY/WX    TMP DP  RH WIND       PRES   REMARKS
FULTON         SUNNY     34  10  37 VRB3      30.50F
SYRACUSE       MOSUNNY   33   6  32 NW5       30.51F WCI  29
ROME           SUNNY     32  11  41 W8        30.51F WCI  25
ELMIRA         SUNNY     41   4  21 VRB5      30.45F
BINGHAMTON     SUNNY     32   2  27 NW7       30.43F WCI  26
MONTICELLO     SUNNY     34   1  25 W9        30.45S WCI  26
$$

NYZ026>034-041>043-087-232200-
NORTH


CITY           SKY/WX    TMP DP  RH WIND       PRES   REMARKS
WATERTOWN      SUNNY     31  14  49 SW13      30.51F WCI  21
FORT DRUM      NOT AVBL
MASSENA        SUNNY     35   5  28 W10       30.48F WCI  27
SARANAC LAKE   SUNNY     29   0  28 VRB6      30.37F WCI  23
PLATTSBURGH    SUNNY     35   0  22 NW8G16    30.46S WCI  29
$$

NYZ001>004-010>016-019>021-085-232200-
WEST


CITY           SKY/WX    TMP DP  RH WIND       PRES   REMARKS
NIAGARA FALLS  SUNNY     38   3  23 NW3       30.45F
BUFFALO        PTSUNNY   37   4  25 W3        30.44F
DUNKIRK        SUNNY     34  19  54 N8        30.44F WCI  27
JAMESTOWN      SUNNY     39   7  26 S6        30.37F WCI  35
WELLSVILLE     CLOUDY    40  -1  18 SW5       30.38F
ROCHESTER      MOSUNNY   39   9  29 CALM      30.48F
PENN YAN       SUNNY     35   9  33 NE6       30.46F WCI  30
$$

             KEY
       WCI = WIND CHILL INDEX
       VSB = VISIBILITY
       HX  = HEAT INDEX
$$




USA.gov is the U.S. government's official web portal to all federal, state and local government web resources and services.